Location: Unspecified
(42.0334°N, 93.6656°W)
Time: 06:54:13
(UTC-05:00)

Amateur Radio Satellites - All Passes

Search period start: 28 April 2015 06:24
Search period end: 29 April 2015 06:24
Location: Unspecified, 42.0334°N, 93.6656°W

Satellite Date Start Highest point End Downlink Frequencies (MHz)
Time Altitude Azimuth
AUBIESAT-1 28 Apr 06:37:30 06:42:18 87° 248° (WSW) 06:47:06 437.475
O/OREOS (USA 219) 28 Apr 06:51:26 06:53:45 14° 50° (NE) 06:56:14 437.305
Cosmos 2499 28 Apr 06:54:14 07:01:38 51° 270° (W) 07:08:30 435.465 / 435.565
DANDE 28 Apr 07:04:30 07:07:08 11° 279° (W) 07:09:08 436.750
PRISM 28 Apr 07:11:19 07:15:29 87° 256° (WSW) 07:19:39 437.425
PCSat 28 Apr 07:13:46 07:17:20 19° 107° (ESE) 07:21:06 145.827
STRAND 1 28 Apr 07:25:16 07:30:23 88° 262° (W) 07:35:32 437.568
CUTE-I 28 Apr 07:32:37 07:37:56 68° 102° (ESE) 07:43:14 437.470
M-CUBED/EXP-1 PRIME 28 Apr 07:33:42 07:37:33 23° 263° (W) 07:41:18 437.505
Cubesat XI-IV 28 Apr 07:43:06 07:48:27 84° 103° (ESE) 07:53:48 437.490
AO-7 28 Apr 07:45:54 07:51:44 21° 309° (NW) 07:57:18 29.400- 29.500
CUBESAT XI-V 28 Apr 07:51:15 07:55:00 23° 267° (W) 07:58:38 437.345
Cosmos 2491 28 Apr 07:54:27 07:54:45 10° 49° (NE) 07:55:48 435.465 / 435.565
BRITE-PL 28 Apr 08:14:21 08:17:20 16° 89° (E) 08:20:39 437.365/2234.400
O/OREOS (USA 219) 28 Apr 08:29:17 08:33:46 69° 250° (WSW) 08:38:11 437.305
HO-68 28 Apr 08:30:06 08:33:32 14° 86° (E) 08:37:26 435.675
PCSat 28 Apr 08:54:56 09:00:19 62° 304° (WNW) 09:05:43 145.827
CANX-2 28 Apr 09:04:58 09:08:00 19° 92° (E) 09:11:08 2200.000
CUTE 1.7 + AOD 2 28 Apr 09:13:29 09:16:45 21° 92° (E) 09:20:04 437.475
CUTE-I 28 Apr 09:14:03 09:17:32 17° 298° (WNW) 09:20:49 437.470
GOMX 1 28 Apr 09:24:00 09:29:01 46° 98° (E) 09:34:15 467.674
Cubesat XI-IV 28 Apr 09:25:08 09:27:56 14° 300° (WNW) 09:30:29 437.490
Cosmos 2491 28 Apr 09:45:47 09:54:23 53° 75° (ENE) 10:03:00 435.465 / 435.565
DOVE 4 28 Apr 09:46:41 09:51:44 51° 99° (E) 09:56:55 437.250
TIGRISAT 28 Apr 09:51:07 09:53:56 17° 64° (ENE) 09:56:56 435.000
BRITE-PL 28 Apr 09:51:08 09:56:18 70° 285° (WNW) 10:01:48 437.365/2234.400
CUBEBUG 2 28 Apr 09:51:13 09:53:52 15° 88° (E) 09:56:43 437.445
DELFI C3 28 Apr 09:55:19 09:56:30 11° 88° (E) 09:57:55 145.870
UNISAT 6 28 Apr 09:56:20 09:59:31 19° 65° (ENE) 10:02:53 437.425
COMPASS 1 28 Apr 09:56:28 10:00:29 42° 98° (E) 10:04:28 437.405
BEESAT 3 28 Apr 10:01:09 10:03:31 15° 39° (NE) 10:05:58 437.485
BEESAT 2 28 Apr 10:06:23 10:08:39 14° 39° (NE) 10:11:02 435.950
CINEMA 3 28 Apr 10:09:54 10:14:41 45° 97° (E) 10:19:31 145.822/145.860
UWE-3 28 Apr 10:10:42 10:14:00 19° 91° (E) 10:17:26 435.000/436.395/437.385
QB50P1 28 Apr 10:11:33 10:13:10 12° 63° (ENE) 10:14:59 145.935-145.965
FUNcube-1 28 Apr 10:12:57 10:15:36 16° 89° (E) 10:18:25 145.935
HO-68 28 Apr 10:15:12 10:22:27 84° 105° (ESE) 10:29:38 435.675
SEEDS 28 Apr 10:26:28 10:30:43 69° 285° (WNW) 10:34:54 437.485
Oscar 11 28 Apr 10:30:56 10:35:03 41° 98° (E) 10:39:10 145.826/435.025
AAUSAT CUBESAT 2 28 Apr 10:36:29 10:40:41 76° 285° (WNW) 10:44:50 437.432
QB50P2 28 Apr 10:36:50 10:40:08 23° 68° (ENE) 10:43:32 145.880/145.840
ANTELSAT 28 Apr 10:37:05 10:41:28 48° 72° (ENE) 10:45:59 437.575/2403.000
ZACube-1 28 Apr 10:38:33 10:42:33 29° 94° (E) 10:46:34 437.345
CANX-2 28 Apr 10:40:08 10:44:06 37° 288° (WNW) 10:48:00 2200.000
PCSat 28 Apr 10:42:23 10:44:56 13° 325° (NW) 10:47:18 145.827
CUTE 1.7 + AOD 2 28 Apr 10:48:54 10:52:46 33° 289° (WNW) 10:56:33 437.475
YUBILEINY 28 Apr 10:50:19 10:58:49 57° 91° (E) 11:07:23 435.215
NANOSAT C BR1 28 Apr 10:52:23 10:56:07 32° 70° (ENE) 10:59:54 145.865
VELOX 1 28 Apr 10:54:45 10:55:44 11° 88° (E) 10:57:00 145.980
POPSAT HIP 1 28 Apr 10:56:49 11:00:39 36° 71° (ENE) 11:04:34 437.405
GOMX 1 28 Apr 11:02:42 11:06:55 25° 293° (WNW) 11:11:09 467.674
BUGSAT 1 28 Apr 11:06:00 11:09:30 30° 70° (ENE) 11:13:05 437.445
AIST 1 28 Apr 11:06:21 11:09:19 18° 70° (ENE) 11:12:23
DX 1 28 Apr 11:09:38 11:13:36 34° 97° (E) 11:17:37 434.975-435.025
SO-50 28 Apr 11:10:39 11:15:01 43° 117° (ESE) 11:19:35 436.795
AISAT 28 Apr 11:12:07 11:15:08 18° 92° (E) 11:18:18 437.250
ISS 28 Apr 11:16:10 11:19:14 39° 138° (SE) 11:22:18 145.825
AIST 2 28 Apr 11:24:19 11:27:51 25° 45° (NE) 11:31:22 435.215
DUCHIFAT 1 28 Apr 11:24:52 11:29:03 74° 76° (ENE) 11:33:17 145.980
DOVE 4 28 Apr 11:25:14 11:29:11 22° 294° (WNW) 11:33:04 437.250
TIGRISAT 28 Apr 11:25:49 11:30:16 54° 261° (W) 11:34:51 435.000
CUBEBUG 2 28 Apr 11:26:17 11:31:01 59° 286° (WNW) 11:35:40 437.445
POLYITAN 1 28 Apr 11:27:32 11:31:45 82° 77° (ENE) 11:36:03 437.675
DELFI C3 28 Apr 11:28:06 11:32:04 56° 286° (WNW) 11:36:00 145.870
UNISAT 6 28 Apr 11:31:36 11:35:59 46° 262° (W) 11:40:29 437.425
COMPASS 1 28 Apr 11:33:04 11:35:52 17° 294° (WNW) 11:38:32 437.405
BEESAT 3 28 Apr 11:37:57 11:42:04 73° 238° (WSW) 11:46:04 437.485
BEESAT 2 28 Apr 11:43:12 11:47:21 78° 238° (WSW) 11:51:24 435.950
Cosmos 2491 28 Apr 11:43:13 11:50:59 35° 274° (W) 11:58:31 435.465 / 435.565
QB50P1 28 Apr 11:44:23 11:48:33 65° 259° (W) 11:52:47 145.935-145.965
HUMSAT D 28 Apr 11:45:21 11:49:43 73° 102° (ESE) 11:54:00 437.325/437.525
UWE-3 28 Apr 11:46:18 11:50:48 45° 288° (WNW) 11:55:13 435.000/436.395/437.385
CINEMA 3 28 Apr 11:47:41 11:51:38 23° 293° (WNW) 11:55:28 145.822/145.860
FUNcube-1 28 Apr 11:47:49 11:52:19 53° 287° (WNW) 11:56:45 145.935
UKube-1 28 Apr 11:48:14 11:52:36 86° 106° (ESE) 11:56:56 .
ESTCUBE 1 28 Apr 12:00:44 12:04:44 32° 96° (E) 12:08:47 437.505/2401.250
50 SAT 28 Apr 12:01:22 12:05:25 68° 101° (E) 12:09:24 437.505
HO-68 28 Apr 12:04:19 12:09:26 21° 304° (WNW) 12:14:17 435.675
Oscar 11 28 Apr 12:07:52 12:10:58 19° 294° (WNW) 12:13:57 145.826/435.025
QB50P2 28 Apr 12:12:07 12:15:54 31° 264° (W) 12:19:42 145.880/145.840
ZACube-1 28 Apr 12:14:53 12:18:52 29° 291° (WNW) 12:22:45 437.345
ANTELSAT 28 Apr 12:15:29 12:18:35 17° 270° (W) 12:21:35 437.575/2403.000
CUBEBUG 1 28 Apr 12:25:00 12:29:17 52° 100° (E) 12:33:34 437.445
VELOX 1 28 Apr 12:28:26 12:32:53 71° 285° (WNW) 12:37:18 145.980
NANOSAT C BR1 28 Apr 12:28:44 12:32:02 22° 267° (W) 12:35:17 145.865
POPSAT HIP 1 28 Apr 12:33:35 12:36:42 19° 268° (W) 12:39:44 437.405
BUGSAT 1 28 Apr 12:41:58 12:45:04 21° 267° (W) 12:48:06 437.445
AIST 1 28 Apr 12:43:13 12:47:09 36° 268° (W) 12:51:04
DX 1 28 Apr 12:46:15 12:49:42 23° 293° (WNW) 12:53:03 434.975-435.025
AISAT 28 Apr 12:47:43 12:51:58 43° 289° (WNW) 12:56:11 437.250
YUBILEINY 28 Apr 12:48:17 12:56:09 33° 292° (WNW) 13:03:49 435.215
SO-50 28 Apr 12:51:42 12:55:46 27° 316° (NW) 12:59:53 436.795
TISAT 1 28 Apr 12:52:11 12:55:25 21° 93° (E) 12:58:44 437.305
ISS 28 Apr 12:52:42 12:55:38 30° 336° (NNW) 12:58:36 145.825
AIST 2 28 Apr 13:02:37 13:06:32 36° 244° (WSW) 13:10:22 435.215
Gurwin Techsat 1B 28 Apr 13:14:19 13:15:52 11° 59° (ENE) 13:17:42 435.225
Oscar 19 28 Apr 13:20:42 13:25:33 44° 71° (ENE) 13:30:30 437.125/150
HUMSAT D 28 Apr 13:23:20 13:24:56 12° 297° (WNW) 13:26:17 437.325/437.525
Cosmos 2504 28 Apr 13:24:30 13:33:01 55° 91° (E) 13:41:27 435.465 / 435.565
SPROUT 28 Apr 13:33:41 13:38:02 81° 102° (ESE) 13:42:22 437.525
ESTCUBE 1 28 Apr 13:37:49 13:41:30 25° 292° (WNW) 13:45:06 437.505/2401.250
50 SAT 28 Apr 13:38:34 13:39:43 11° 297° (WNW) 13:40:40 437.505
RS-15 28 Apr 13:54:20 14:04:23 47° 111° (ESE) 14:14:46 29.354- 29.394
ITAMSAT 1 28 Apr 14:02:32 14:07:09 35° 68° (ENE) 14:11:50 435.822/435.867
CUBEBUG 1 28 Apr 14:02:35 14:05:17 16° 295° (WNW) 14:07:50 437.445
ITUPSAT 1 28 Apr 14:24:15 14:28:31 32° 96° (E) 14:32:49 437.325
TISAT 1 28 Apr 14:27:26 14:31:18 33° 290° (WNW) 14:35:07 437.305
ISS 28 Apr 14:30:42 14:32:45 15° 356° (N) 14:34:47 145.825
JAS-2 28 Apr 14:46:03 14:51:19 21° 60° (ENE) 14:56:41 435.910
Gurwin Techsat 1B 28 Apr 14:49:47 14:55:05 80° 76° (ENE) 15:00:26 435.225
BEESAT 28 Apr 14:52:45 14:57:30 65° 101° (E) 15:02:13 436.000
SWISSCUBE 28 Apr 14:55:47 15:00:35 76° 103° (ESE) 15:05:20 437.505
AO-7 28 Apr 14:59:51 15:06:47 32° 58° (ENE) 15:13:54 29.400- 29.500
Oscar 19 28 Apr 15:01:03 15:05:09 23° 268° (W) 15:09:10 437.125/150
SPROUT 28 Apr 15:12:34 15:13:33 10° 298° (WNW) 15:14:17 437.525
GONETS M04 28 Apr 15:17:21 15:22:31 18° 79° (E) 15:28:13
HORYU 2 28 Apr 15:18:25 15:22:18 30° 69° (ENE) 15:26:16 437.375
Cosmos 2504 28 Apr 15:18:48 15:26:50 35° 291° (WNW) 15:34:34 435.465 / 435.565
KKS-1 28 Apr 15:34:05 15:38:07 32° 96° (E) 15:42:10 437.445
ITAMSAT 1 28 Apr 15:42:11 15:46:42 29° 265° (W) 15:51:11 435.822/435.867
VERMONT LUNAR 28 Apr 15:49:07 15:51:54 24° 156° (SSE) 15:54:43 437.305
PCSat 28 Apr 15:59:52 16:03:49 20° 43° (NE) 16:07:53 145.827
ITUPSAT 1 28 Apr 16:02:17 16:06:21 27° 292° (WNW) 16:10:18 437.325
RS-15 28 Apr 16:06:02 16:16:41 55° 315° (NW) 16:27:36 29.354- 29.394
ISS 28 Apr 16:07:25 16:09:58 21° 16° (NNE) 16:12:33 145.825
STARS 28 Apr 16:20:41 16:25:07 65° 101° (ESE) 16:29:33 437.465
JAS-2 28 Apr 16:27:43 16:35:37 89° 255° (WSW) 16:43:10 435.910
BEESAT 28 Apr 16:32:06 16:34:52 15° 297° (WNW) 16:37:27 436.000
Gurwin Techsat 1B 28 Apr 16:33:23 16:35:49 13° 273° (W) 16:37:57 435.225
SWISSCUBE 28 Apr 16:35:37 16:37:53 13° 298° (WNW) 16:39:55 437.505
PHONESAT 2.4 28 Apr 16:49:33 16:52:32 25° 156° (SSE) 16:55:34 2401.200-2431.200
DANDE 28 Apr 16:50:01 16:52:28 17° 83° (E) 16:55:31 436.750
AO-7 28 Apr 16:50:58 16:59:10 63° 257° (WSW) 17:07:23 29.400- 29.500
HORYU 2 28 Apr 16:55:07 16:58:57 27° 265° (W) 17:02:46 437.375
GONETS M04 28 Apr 17:09:29 17:18:16 90° 171° (S) 17:27:11
KKS-1 28 Apr 17:10:55 17:14:39 25° 292° (WNW) 17:18:16 437.445
CUTE-I 28 Apr 17:17:44 17:20:47 16° 61° (ENE) 17:24:03 437.470
VERMONT LUNAR 28 Apr 17:25:43 17:29:02 61° 173° (S) 17:32:24 437.305
Cubesat XI-IV 28 Apr 17:27:38 17:31:19 20° 63° (ENE) 17:35:10 437.490
CUSAT 1 28 Apr 17:29:57 17:33:48 74° 96° (E) 17:39:02 437.405
Cosmos 2499 28 Apr 17:38:05 17:44:56 27° 84° (E) 17:51:54 435.465 / 435.565
PCSat 28 Apr 17:42:25 17:47:51 73° 243° (WSW) 17:53:14 145.827
ISS 28 Apr 17:43:25 17:46:42 89° 47° (NE) 17:49:57 145.825
STARS 28 Apr 17:58:49 18:01:06 14° 297° (WNW) 18:03:12 437.465
MOZHAYETS 4 28 Apr 18:00:29 18:05:06 83° 102° (ESE) 18:09:40
SO-50 28 Apr 18:03:24 18:04:27 11° 29° (NNE) 18:05:39 436.795
JAS-2 28 Apr 18:16:18 18:21:34 18° 274° (W) 18:26:19 435.910
RS-15 28 Apr 18:23:49 18:32:26 24° 346° (NNW) 18:41:11 29.354- 29.394
PHONESAT 2.4 28 Apr 18:26:56 18:30:28 62° 172° (S) 18:34:02 2401.200-2431.200
DANDE 28 Apr 18:31:51 18:35:15 32° 292° (WNW) 18:39:38 436.750
AO-7 28 Apr 18:52:48 18:53:55 10° 278° (W) 18:54:13 29.400- 29.500
CUTE-I 28 Apr 18:55:01 19:00:19 73° 257° (WSW) 19:05:40 437.470
PRISM 28 Apr 18:55:20 18:56:54 12° 89° (E) 18:58:41 437.425
HO-68 28 Apr 19:01:05 19:04:11 14° 51° (NE) 19:07:40 435.675
VERMONT LUNAR 28 Apr 19:03:03 19:06:23 60° 189° (S) 19:09:44 437.305
Cubesat XI-IV 28 Apr 19:05:47 19:11:02 58° 259° (W) 19:16:18 437.490
GONETS M04 28 Apr 19:10:21 19:16:37 20° 301° (WNW) 19:22:31
M-CUBED/EXP-1 PRIME 28 Apr 19:14:58 19:18:26 27° 99° (E) 19:21:41 437.505
CUSAT 1 28 Apr 19:16:13 19:17:51 11° 306° (NW) 19:19:20 437.405
ISS 28 Apr 19:21:48 19:22:37 11° 230° (SW) 19:23:18 145.825
BRITE-PL 28 Apr 19:27:12 19:29:20 14° 63° (ENE) 19:31:43 437.365/2234.400
Cosmos 2499 28 Apr 19:28:43 19:37:34 68° 282° (WNW) 19:46:05 435.465 / 435.565
STRAND 1 28 Apr 19:35:47 19:40:13 30° 95° (E) 19:44:43 437.568
MOZHAYETS 4 28 Apr 19:40:15 19:41:44 11° 298° (WNW) 19:42:58
SO-50 28 Apr 19:41:31 19:46:18 46° 50° (NE) 19:51:03 436.795
CUBESAT XI-V 28 Apr 19:46:16 19:50:54 85° 103° (ESE) 19:55:31 437.345
AUBIESAT-1 28 Apr 19:53:46 19:57:50 69° 106° (ESE) 20:01:32 437.475
CANX-2 28 Apr 19:59:03 20:01:37 16° 66° (ENE) 20:04:20 2200.000
PHONESAT 2.4 28 Apr 20:05:02 20:08:36 62° 189° (S) 20:12:09 2401.200-2431.200
CUTE 1.7 + AOD 2 28 Apr 20:07:23 20:10:11 18° 66° (ENE) 20:13:09 437.475
PRISM 28 Apr 20:28:46 20:32:47 54° 287° (WNW) 20:36:46 437.425
GOMX 1 28 Apr 20:33:17 20:37:18 44° 72° (ENE) 20:41:36 467.674
VERMONT LUNAR 28 Apr 20:40:45 20:43:32 24° 205° (SSW) 20:46:18 437.305
RS-15 28 Apr 20:40:50 20:49:54 27° 20° (NNE) 20:59:28 29.354- 29.394
HO-68 28 Apr 20:43:38 20:50:44 66° 70° (ENE) 20:57:53 435.675
COMPASS 1 28 Apr 20:48:12 20:51:56 31° 71° (ENE) 20:55:45 437.405
M-CUBED/EXP-1 PRIME 28 Apr 20:49:50 20:53:14 24° 298° (WNW) 20:56:21 437.505
CUBEBUG 2 28 Apr 20:50:51 20:52:56 13° 63° (ENE) 20:55:15 437.445
DOVE 4 28 Apr 20:53:10 20:57:18 48° 73° (ENE) 21:01:43 437.250
YUBILEINY 28 Apr 21:00:25 21:07:33 28° 65° (ENE) 21:14:53 435.215
BRITE-PL 28 Apr 21:03:22 21:07:27 53° 261° (W) 21:11:44 437.365/2234.400
O/OREOS (USA 219) 28 Apr 21:05:17 21:07:13 13° 100° (E) 21:09:23 437.305
UWE-3 28 Apr 21:08:57 21:11:44 17° 65° (ENE) 21:14:41 435.000/436.395/437.385
FUNcube-1 28 Apr 21:10:04 21:12:09 14° 63° (ENE) 21:14:27 145.935
CINEMA 3 28 Apr 21:12:17 21:16:22 39° 71° (ENE) 21:20:42 145.822/145.860
STRAND 1 28 Apr 21:14:53 21:19:27 33° 292° (WNW) 21:23:57 437.568
SEEDS 28 Apr 21:18:32 21:22:49 85° 77° (ENE) 21:27:08 437.485
SO-50 28 Apr 21:22:36 21:26:38 24° 247° (WSW) 21:30:30 436.795
Oscar 11 28 Apr 21:26:08 21:30:02 34° 71° (ENE) 21:34:01 145.826/435.025
CUBESAT XI-V 28 Apr 21:26:20 21:27:45 11° 298° (WNW) 21:28:55 437.345
AAUSAT CUBESAT 2 28 Apr 21:27:21 21:31:33 75° 76° (ENE) 21:35:48 437.432
Cosmos 2499 28 Apr 21:28:01 21:32:38 14° 304° (NW) 21:36:36 435.465 / 435.565
AUBIESAT-1 28 Apr 21:30:37 21:32:01 11° 304° (NW) 21:33:14 437.475
CANX-2 28 Apr 21:33:00 21:37:11 49° 261° (W) 21:41:24 2200.000
ZACube-1 28 Apr 21:35:15 21:38:46 25° 68° (ENE) 21:42:27 437.345
CUTE 1.7 + AOD 2 28 Apr 21:41:42 21:45:49 43° 262° (W) 21:49:57 437.475
PHONESAT 2.4 28 Apr 21:43:30 21:46:31 25° 205° (SSW) 21:49:31 2401.200-2431.200
VELOX 1 28 Apr 21:53:19 21:54:40 11° 62° (ENE) 21:56:14 145.980
DX 1 28 Apr 22:05:45 22:09:34 32° 69° (ENE) 22:13:27 434.975-435.025
AISAT 28 Apr 22:10:51 22:13:47 18° 65° (ENE) 22:16:51 437.250
GOMX 1 28 Apr 22:13:04 22:15:50 16° 271° (W) 22:18:31 467.674
DELFI C3 28 Apr 22:15:34 22:19:40 90° 255° (WSW) 22:23:46 145.870
COMPASS 1 28 Apr 22:24:18 22:27:42 22° 267° (W) 22:31:01 437.405
CUBEBUG 2 28 Apr 22:24:42 22:29:05 67° 260° (W) 22:33:40 437.445
ANTELSAT 28 Apr 22:32:03 22:32:26 10° 86° (E) 22:33:08 437.575/2403.000
DOVE 4 28 Apr 22:32:50 22:35:31 15° 272° (W) 22:38:07 437.250
HO-68 28 Apr 22:33:22 22:39:04 24° 269° (W) 22:44:34 435.675
HUMSAT D 28 Apr 22:37:22 22:41:29 53° 74° (ENE) 22:45:43 437.325/437.525
O/OREOS (USA 219) 28 Apr 22:41:37 22:46:11 63° 295° (WNW) 22:50:43 437.305
UKube-1 28 Apr 22:43:17 22:47:35 77° 74° (ENE) 22:51:55 .
UWE-3 28 Apr 22:43:35 22:47:52 50° 261° (W) 22:52:18 435.000/436.395/437.385
FUNcube-1 28 Apr 22:43:38 22:47:58 64° 259° (W) 22:52:26 145.935
50 SAT 28 Apr 22:46:57 22:50:42 40° 72° (ENE) 22:54:32 437.505
Cosmos 2491 28 Apr 22:47:07 22:55:36 60° 92° (E) 23:04:12 435.465 / 435.565
CINEMA 3 28 Apr 22:50:31 22:53:49 20° 270° (W) 22:57:07 145.822/145.860
RS-15 28 Apr 22:53:48 23:05:14 64° 50° (NE) 23:17:11 29.354- 29.394
YUBILEINY 28 Apr 22:56:32 23:05:11 66° 267° (W) 23:13:43 435.215
ESTCUBE 1 28 Apr 23:00:52 23:04:50 32° 69° (ENE) 23:08:51 437.505/2401.250
Oscar 11 28 Apr 23:02:54 23:06:20 22° 267° (W) 23:09:41 145.826/435.025
ZACube-1 28 Apr 23:11:03 23:15:00 32° 265° (W) 23:19:02 437.345
DUCHIFAT 1 28 Apr 23:11:26 23:12:50 12° 88° (E) 23:14:29 145.980
POLYITAN 1 28 Apr 23:14:18 23:16:21 13° 89° (E) 23:18:37 437.675
TIGRISAT 28 Apr 23:17:25 23:21:35 31° 95° (E) 23:25:43 435.000
Cosmos 2504 28 Apr 23:18:38 23:23:42 19° 59° (ENE) 23:28:54 435.465 / 435.565
CUBEBUG 1 28 Apr 23:21:34 23:25:40 45° 72° (ENE) 23:29:49 437.445
UNISAT 6 28 Apr 23:23:14 23:27:34 37° 96° (E) 23:31:53 437.425
VELOX 1 28 Apr 23:26:17 23:30:41 76° 258° (WSW) 23:35:06 145.980
QB50P1 28 Apr 23:29:53 23:32:59 20° 92° (E) 23:36:12 145.935-145.965
AIST 1 28 Apr 23:39:04 23:39:40 10° 85° (E) 23:40:33
DX 1 28 Apr 23:42:23 23:45:53 23° 266° (W) 23:49:19 434.975-435.025
TISAT 1 28 Apr 23:45:28 23:48:13 18° 66° (ENE) 23:51:06 437.305
AISAT 28 Apr 23:45:52 23:50:05 44° 261° (W) 23:54:19 437.250
QB50P2 28 Apr 23:56:36 00:00:39 39° 98° (E) 00:04:42 145.880/145.840
ANTELSAT 29 Apr 00:05:12 00:09:56 81° 284° (WNW) 00:14:34 437.575/2403.000
NANOSAT C BR1 29 Apr 00:12:04 00:16:18 57° 100° (E) 00:20:32 145.865
HUMSAT D 29 Apr 00:15:24 00:17:40 14° 271° (W) 00:19:44 437.325/437.525
POPSAT HIP 1 29 Apr 00:16:54 00:21:12 65° 101° (ESE) 00:25:29 437.405
BUGSAT 1 29 Apr 00:22:27 00:26:32 51° 100° (E) 00:30:39 437.445
50 SAT 29 Apr 00:23:12 00:25:45 16° 269° (W) 00:28:10 437.505
SPROUT 29 Apr 00:28:04 00:32:17 64° 75° (ENE) 00:36:33 437.525
SWISSCUBE 29 Apr 00:28:57 00:30:13 11° 60° (ENE) 00:31:43 437.505
ESTCUBE 1 29 Apr 00:38:00 00:41:45 25° 266° (W) 00:45:26 437.505/2401.250
DUCHIFAT 1 29 Apr 00:44:54 00:49:09 62° 286° (WNW) 00:53:22 145.980
Cosmos 2491 29 Apr 00:45:29 00:53:05 31° 293° (WNW) 01:00:33 435.465 / 435.565
POLYITAN 1 29 Apr 00:48:25 00:52:40 55° 286° (WNW) 00:56:52 437.675
TIGRISAT 29 Apr 00:54:14 00:58:15 28° 292° (WNW) 01:02:09 435.000
YUBILEINY 29 Apr 00:57:47 01:00:27 11° 286° (WNW) 01:02:23 435.215
CUBEBUG 1 29 Apr 00:59:32 01:02:20 16° 269° (W) 01:04:59 437.445
UNISAT 6 29 Apr 01:00:23 01:04:10 24° 293° (WNW) 01:07:50 437.425
QB50P1 29 Apr 01:05:02 01:09:01 37° 289° (WNW) 01:12:57 145.935-145.965
RS-15 29 Apr 01:06:46 01:17:20 41° 251° (WSW) 01:28:02 29.354- 29.394
Cosmos 2504 29 Apr 01:10:29 01:18:30 86° 264° (W) 01:25:55 435.465 / 435.565
AIST 1 29 Apr 01:12:34 01:16:50 64° 279° (W) 01:21:05
TISAT 1 29 Apr 01:19:46 01:23:44 41° 262° (W) 01:27:44 437.305
ITUPSAT 1 29 Apr 01:31:25 01:35:52 40° 70° (ENE) 01:40:21 437.325
BEESAT 3 29 Apr 01:32:24 01:35:10 18° 112° (ESE) 01:38:05 437.485
QB50P2 29 Apr 01:33:10 01:36:19 20° 293° (WNW) 01:39:21 145.880/145.840
Oscar 19 29 Apr 01:33:11 01:36:00 15° 88° (E) 01:39:04 437.125/150
BEESAT 2 29 Apr 01:38:37 01:41:20 18° 112° (ESE) 01:44:11 435.950
NANOSAT C BR1 29 Apr 01:49:22 01:51:44 14° 296° (WNW) 01:53:54 145.865
POPSAT HIP 1 29 Apr 01:54:37 01:56:36 13° 296° (WNW) 01:58:23 437.405
BUGSAT 1 29 Apr 01:59:14 02:01:39 15° 295° (WNW) 02:03:57 437.445
BEESAT 29 Apr 01:59:29 02:04:16 78° 74° (ENE) 02:09:04 436.000
SWISSCUBE 29 Apr 02:02:38 02:07:25 90° 187° (S) 02:12:14 437.505
SPROUT 29 Apr 02:07:29 02:08:54 11° 272° (W) 02:10:05 437.525
ITAMSAT 1 29 Apr 02:17:16 02:18:31 11° 86° (E) 02:20:08 435.822/435.867
CUSAT 1 29 Apr 02:23:58 02:28:12 16° 58° (ENE) 02:33:05 437.405
KKS-1 29 Apr 02:32:46 02:36:40 31° 69° (ENE) 02:40:38 437.445
AIST 2 29 Apr 03:00:31 03:04:29 41° 117° (ESE) 03:08:33 435.215
Gurwin Techsat 1B 29 Apr 03:05:59 03:10:37 31° 95° (E) 03:15:20 435.225
Cosmos 2504 29 Apr 03:06:29 03:10:41 15° 283° (WNW) 03:14:18 435.465 / 435.565
BEESAT 3 29 Apr 03:08:59 03:12:54 43° 308° (NW) 03:16:52 437.485
ITUPSAT 1 29 Apr 03:10:10 03:13:56 22° 267° (W) 03:17:37 437.325
Oscar 19 29 Apr 03:10:45 03:15:57 67° 286° (WNW) 03:21:05 437.125/150
BEESAT 2 29 Apr 03:15:10 03:19:08 45° 308° (NW) 03:23:09 435.950
STARS 29 Apr 03:17:51 03:22:10 59° 74° (ENE) 03:26:32 437.465
GONETS M04 29 Apr 03:19:29 03:27:55 47° 73° (ENE) 03:36:21
DANDE 29 Apr 03:26:00 03:32:48 33° 69° (ENE) 03:40:23 436.750
BEESAT 29 Apr 03:41:16 03:42:47 11° 273° (W) 03:44:00 436.000
ITAMSAT 1 29 Apr 03:53:37 03:58:50 87° 287° (WNW) 04:04:02 435.822/435.867
CUSAT 1 29 Apr 04:04:31 04:12:21 69° 77° (ENE) 04:20:41 437.405
KKS-1 29 Apr 04:09:39 04:13:20 25° 266° (W) 04:16:59 437.445
AIST 2 29 Apr 04:39:44 04:43:15 24° 315° (NW) 04:46:44 435.215
HORYU 2 29 Apr 04:45:10 04:49:36 56° 100° (E) 04:54:00 437.375
Gurwin Techsat 1B 29 Apr 04:45:51 04:50:39 35° 292° (WNW) 04:55:22 435.225
AO-7 29 Apr 04:51:59 04:59:50 45° 99° (E) 05:07:46 29.400- 29.500
STARS 29 Apr 04:56:59 04:59:06 13° 271° (W) 05:00:59 437.465
MOZHAYETS 4 29 Apr 05:02:30 05:07:09 81° 77° (ENE) 05:11:49
DANDE 29 Apr 05:08:45 05:16:26 61° 265° (W) 05:24:49 436.750
AUBIESAT-1 29 Apr 05:09:12 05:11:23 14° 57° (ENE) 05:13:48 437.475
GONETS M04 29 Apr 05:16:37 05:24:41 40° 273° (W) 05:32:32
Cosmos 2499 29 Apr 05:20:35 05:27:54 45° 73° (ENE) 05:34:46 435.465 / 435.565
JAS-2 29 Apr 05:23:27 05:29:41 80° 102° (ESE) 05:35:12 435.910
ITAMSAT 1 29 Apr 05:35:34 05:37:39 12° 301° (WNW) 05:39:28 435.822/435.867
PRISM 29 Apr 05:47:08 05:48:09 11° 63° (ENE) 05:49:22 437.425
CUSAT 1 29 Apr 05:48:07 05:54:41 28° 273° (W) 06:01:15 437.405
M-CUBED/EXP-1 PRIME 29 Apr 06:02:19 06:06:56 46° 67° (ENE) 06:11:31 437.505
